星链-32439 (STARLINK-32439)

导读 | 星芒AI

STARLINK-32439 是 SpaceX Starlink 卫星互联网项目中的一颗低轨卫星,属于 Starlink 群体部署的一部分。该卫星由 SpaceX 制造并发射,旨在为全球用户提供高速互联网服务,尤其关注网络覆盖不足的地区。它运行在约 550 公里的轨道高度,采用先进通信技术,支持高速数据传输和低延迟通信。作为 Starlink 计划的重要组成部分,该卫星有助于构建全球性的宽带网络,提升远程地区的网络接入能力。

基本信息
目录编号:
61665
目录名称:
STARLINK-32439
国际标识:
2024-193E
轨道中心:
EARTH
卫星名称:
星链-32439
卫星全名:
星链-32439 (STARLINK-32439)
卫星状态:
在轨 (已飞行420 天)
发射日期:
2024-10-26 UTC
国别 :
美国 (US)
星等 :
--
轨道信息
数据来源 国际轨道数据 AOE轨道数据
星历时间 2025-12-18T23:28:23+0800
1天前
查看轨道信息
2025-12-14T09:00:00+0800
6天前
查看轨道信息
半长轴 6853.376km 6853.356km
偏心率 0.0001179 0.0001365
轨道倾角 53.161° 53.160°
近地点辐角 82.065° 76.842°
升交点赤经 107.783° 129.165°
平近点角 278.048° 112.324°
近地点 474.432km 474.285km
远地点 476.05km 476.157km
周期 94.106分钟 94.105分钟
每日圈数 15.301922 15.301988
详细信息
固有亮度:
5
最大亮度:
2.5
卫星平台:
Starlink V1.0
覆盖范围:
全球
运营商:
太空探索技术公司
运营商所在国:
美国
制造商(研发单位):
太空探索技术公司
制造商所在国:
美国
使用方式:
暂无
卫星简介
Starlink 计划是 SpaceX 推出的全球卫星互联网项目,通过发射低轨道卫星,为全球尤其是偏远地区提供高速、低延迟的互联网服务。自 2019 年起,Starlink 已部署数千颗卫星,旨在缩小全球数字鸿沟,推动互联网普及。该项目还为军事、航空等行业提供通信支持,带来广泛经济效益。
2D轨道图
3D轨道图
轨道高度分析图
轨道倾角分析图
轨道综合分析图
查看轨道综合分析图